C/2017 E5 ( Lemmon )

Japanese version
Home page
Updated on July 6, 2017

---------------------------------------------------------------------

* Profile

Discovery Date March 4, 2017
Magnitude 20.1 mag
Discoverer G. J. Leonard (Mount Lemmon)

* Pictures

* Orbital Elements

Epoch 2016 June 21.0 TT = JDT 2457560.5
T 2016 June 10.88992 TT                                 MPCW
q   1.7841718            (2000.0)            P               Q
z  +0.0024775      Peri.  306.80058     -0.34691851     -0.86108538
 +/-0.0000578      Node   206.19355     -0.32984915     -0.25900387
e   0.9955796      Incl.  122.63312     -0.87797898     +0.43754882
From 74 observations 2017 Feb. 9-Mar. 31, mean residual 0".5.

* Finding Charts

* Magnitudes Graph

        m1 = 12.0 + 5 log d + 10.0 log r

---------------------------------------------------------------------

The orbital elements are published on M.P.E.C. 2017-L52.
The charts are made with StellaNavigator Ver.10 (AstroArts).
The magnitudes graphs are made with Comet for Windows.

---------------------------------------------------------------------

Copyright(C) Seiichi Yoshida (comet@aerith.net). All rights reserved.